When you browse on this site, cookies collect data to enhance your experience and personalize the content and advertising you see.
Visit our Privacy Policy to learn more. By continuing to use the site, you agree to this use of cookies and data.
  • în România
  • Lista ţărilor
  • Pe 7 zile
  • Temperatura apei
  • Hartă satelitară
  • Meteo pe hartă
  • Widget-uri
  • user-avatar
    Intrare

    Meteo pe oră la Arne

    Astăzi, 19 Iulie, Vineri

    Timp Temperatura Precipitaţii Vânt Presiune Umiditate
    00:00 +14°C° 0.1 mm 1 m/s 684 mmHg 84%
    01:00 +14°C° 0 mm 1 m/s 684 mmHg 85%
    02:00 +14°C° 0 mm 1 m/s 684 mmHg 85%
    03:00 +14°C° 0 mm 1 m/s 684 mmHg 86%
    04:00 +14°C° 0 mm 1 m/s 684 mmHg 86%
    05:00 +14°C° 0 mm 1 m/s 684 mmHg 84%
    06:00 +15°C° 0 mm 1 m/s 684 mmHg 83%
    07:00 +18°C° 0 mm 1 m/s 685 mmHg 76%
    08:00 +20°C° 0 mm 1 m/s 685 mmHg 70%
    09:00 +22°C° 0 mm 1 m/s 685 mmHg 63%
    10:00 +23°C° 0 mm 1 m/s 686 mmHg 57%
    11:00 +24°C° 0 mm 1 m/s 686 mmHg 55%
    12:00 +25°C° 0 mm 2 m/s 686 mmHg 52%
    13:00 +26°C° 0 mm 2 m/s 686 mmHg 50%
    14:00 +26°C° 0.2 mm 2 m/s 686 mmHg 50%
    15:00 +26°C° 0.2 mm 2 m/s 686 mmHg 51%
    16:00 +26°C° 0.2 mm 2 m/s 686 mmHg 52%
    17:00 +24°C° 0 mm 1 m/s 685 mmHg 59%
    18:00 +23°C° 0 mm 1 m/s 685 mmHg 67%
    19:00 +22°C° 0 mm 1 m/s 685 mmHg 74%
    20:00 +20°C° 0 mm 1 m/s 685 mmHg 79%
    21:00 +19°C° 0 mm 1 m/s 685 mmHg 84%
    22:00 +16°C° 0 mm 1 m/s 684 mmHg 89%
    23:00 +16°C° 0 mm 1 m/s 684 mmHg 88%

    Mâine, 20 Iulie, Sâmbătă

    Timp Temperatura Precipitaţii Vânt Presiune Umiditate
    00:00 +16°C° 0 mm 1 m/s 684 mmHg 87%
    01:00 +15°C° 0 mm 1 m/s 684 mmHg 85%
    02:00 +15°C° 0 mm 1 m/s 684 mmHg 84%
    03:00 +15°C° 0 mm 1 m/s 684 mmHg 82%
    04:00 +15°C° 0 mm 1 m/s 684 mmHg 81%
    05:00 +16°C° 0 mm 1 m/s 684 mmHg 78%
    06:00 +18°C° 0 mm 1 m/s 685 mmHg 76%
    07:00 +20°C° 0 mm 1 m/s 685 mmHg 73%
    08:00 +22°C° 0 mm 1 m/s 685 mmHg 66%
    09:00 +24°C° 0 mm 1 m/s 686 mmHg 60%
    10:00 +26°C° 0 mm 1 m/s 686 mmHg 53%
    11:00 +27°C° 0.1 mm 1 m/s 686 mmHg 50%
    12:00 +27°C° 0.1 mm 2 m/s 687 mmHg 47%
    13:00 +28°C° 0.1 mm 3 m/s 687 mmHg 44%
    14:00 +28°C° 0.5 mm 3 m/s 687 mmHg 46%
    15:00 +28°C° 0.5 mm 2 m/s 686 mmHg 47%
    16:00 +28°C° 0.5 mm 2 m/s 686 mmHg 48%
    17:00 +26°C° 0.1 mm 2 m/s 686 mmHg 56%
    18:00 +25°C° 0.1 mm 1 m/s 686 mmHg 63%
    19:00 +21°C° 0.1 mm 0 m/s 686 mmHg 70%
    20:00 +22°C° 0.1 mm 1 m/s 687 mmHg 72%
    21:00 +21°C° 0.1 mm 1 m/s 687 mmHg 74%
    22:00 +19°C° 0.1 mm 1 m/s 687 mmHg 76%
    23:00 +19°C° 0.2 mm 1 m/s 687 mmHg 79%

    Poimâine, 21 Iulie, Duminică

    Timp Temperatura Precipitaţii Vânt Presiune Umiditate
    00:00 +18°C° 0.2 mm 1 m/s 687 mmHg 83%
    01:00 +16°C° 0.2 mm 1 m/s 687 mmHg 87%
    02:00 +16°C° 0.5 mm 1 m/s 687 mmHg 88%
    03:00 +16°C° 0.5 mm 1 m/s 687 mmHg 89%
    04:00 +16°C° 0.5 mm 1 m/s 687 mmHg 91%
    05:00 +16°C° 0.4 mm 1 m/s 687 mmHg 90%
    06:00 +18°C° 0.4 mm 1 m/s 688 mmHg 89%
    07:00 +19°C° 0.4 mm 1 m/s 688 mmHg 88%
    08:00 +21°C° 0.2 mm 1 m/s 688 mmHg 81%
    09:00 +22°C° 0.2 mm 1 m/s 689 mmHg 74%
    10:00 +24°C° 0.2 mm 1 m/s 689 mmHg 68%
    11:00 +24°C° 0.7 mm 1 m/s 689 mmHg 68%
    12:00 +25°C° 0.7 mm 1 m/s 690 mmHg 69%
    13:00 +25°C° 0.7 mm 2 m/s 690 mmHg 70%
    14:00 +25°C° 0.8 mm 2 m/s 690 mmHg 71%
    15:00 +25°C° 0.8 mm 1 m/s 690 mmHg 72%
    16:00 +25°C° 0.8 mm 1 m/s 690 mmHg 73%
    17:00 +24°C° 0.7 mm 1 m/s 690 mmHg 79%
    18:00 +23°C° 0.7 mm 1 m/s 689 mmHg 84%
    19:00 +20°C° 0.7 mm 0 m/s 689 mmHg 90%
    20:00 +21°C° 0.2 mm 1 m/s 690 mmHg 90%
    21:00 +20°C° 0.2 mm 1 m/s 690 mmHg 91%
    22:00 +18°C° 0.2 mm 1 m/s 690 mmHg 92%
    23:00 +18°C° 0 mm 1 m/s 690 mmHg 92%

    22 Iulie, Luni

    Timp Temperatura Precipitaţii Vânt Presiune Umiditate
    00:00 +16°C° 0 mm 1 m/s 690 mmHg 91%
    01:00 +16°C° 0 mm 1 m/s 689 mmHg 91%
    02:00 +16°C° 0 mm 1 m/s 689 mmHg 91%
    03:00 +16°C° 0 mm 1 m/s 689 mmHg 91%
    04:00 +15°C° 0 mm 1 m/s 689 mmHg 91%
    05:00 +16°C° 0 mm 1 m/s 690 mmHg 89%
    06:00 +17°C° 0 mm 0 m/s 690 mmHg 88%
    07:00 +18°C° 0 mm 0 m/s 690 mmHg 86%
    08:00 +21°C° 0 mm 1 m/s 691 mmHg 79%
    09:00 +23°C° 0 mm 1 m/s 691 mmHg 71%
    10:00 +25°C° 0 mm 1 m/s 691 mmHg 64%
    11:00 +26°C° 0 mm 1 m/s 691 mmHg 61%
    12:00 +27°C° 0 mm 1 m/s 691 mmHg 58%
    13:00 +28°C° 0 mm 1 m/s 691 mmHg 55%
    14:00 +28°C° 0.1 mm 2 m/s 691 mmHg 55%
    15:00 +28°C° 0.1 mm 2 m/s 691 mmHg 56%
    16:00 +28°C° 0.1 mm 2 m/s 691 mmHg 56%
    17:00 +27°C° 0.1 mm 1 m/s 690 mmHg 63%
    18:00 +26°C° 0.1 mm 1 m/s 690 mmHg 70%
    19:00 +24°C° 0.1 mm 1 m/s 690 mmHg 77%
    20:00 +23°C° 0 mm 1 m/s 690 mmHg 81%
    21:00 +21°C° 0 mm 1 m/s 690 mmHg 86%
    22:00 +19°C° 0 mm 1 m/s 690 mmHg 90%
    23:00 +19°C° 0 mm 1 m/s 689 mmHg 90%

    23 Iulie, Marţi

    Timp Temperatura Precipitaţii Vânt Presiune Umiditate
    00:00 +19°C° 0 mm 1 m/s 689 mmHg 91%
    01:00 +18°C° 0 mm 1 m/s 689 mmHg 92%
    02:00 +18°C° 0 mm 1 m/s 689 mmHg 92%
    03:00 +18°C° 0 mm 1 m/s 688 mmHg 92%
    04:00 +16°C° 0 mm 1 m/s 688 mmHg 92%
    05:00 +16°C° 0 mm 0 m/s 688 mmHg 89%
    06:00 +18°C° 0 mm 0 m/s 688 mmHg 86%
    07:00 +19°C° 0 mm 0 m/s 689 mmHg 82%
    08:00 +23°C° 0 mm 1 m/s 689 mmHg 75%
    09:00 +25°C° 0 mm 1 m/s 689 mmHg 68%
    10:00 +26°C° 0 mm 1 m/s 690 mmHg 61%
    11:00 +27°C° 0 mm 2 m/s 689 mmHg 57%
    12:00 +29°C° 0 mm 2 m/s 689 mmHg 54%
    13:00 +30°C° 0 mm 2 m/s 689 mmHg 50%
    14:00 +30°C° 0 mm 2 m/s 689 mmHg 50%
    15:00 +30°C° 0 mm 2 m/s 689 mmHg 50%
    16:00 +30°C° 0 mm 2 m/s 689 mmHg 50%
    17:00 +28°C° 0.1 mm 1 m/s 688 mmHg 58%
    18:00 +26°C° 0.1 mm 1 m/s 688 mmHg 66%
    19:00 +25°C° 0.1 mm 1 m/s 688 mmHg 75%
    20:00 +23°C° 0 mm 1 m/s 688 mmHg 77%
    21:00 +22°C° 0 mm 1 m/s 687 mmHg 80%
    22:00 +21°C° 0 mm 1 m/s 687 mmHg 83%
    23:00 +20°C° 0 mm 1 m/s 687 mmHg 83%

    24 Iulie, Miercuri

    Timp Temperatura Precipitaţii Vânt Presiune Umiditate
    00:00 +20°C° 0 mm 1 m/s 687 mmHg 83%
    01:00 +20°C° 0 mm 1 m/s 687 mmHg 84%
    02:00 +19°C° 0 mm 1 m/s 687 mmHg 84%
    03:00 +19°C° 0 mm 1 m/s 687 mmHg 84%
    04:00 +19°C° 0 mm 1 m/s 687 mmHg 84%
    05:00 +18°C° 0 mm 0 m/s 687 mmHg 82%
    06:00 +19°C° 0 mm 0 m/s 687 mmHg 80%
    07:00 +21°C° 0 mm 0 m/s 688 mmHg 77%
    08:00 +23°C° 0 mm 0 m/s 688 mmHg 69%
    09:00 +27°C° 0 mm 1 m/s 688 mmHg 61%
    10:00 +29°C° 0 mm 1 m/s 689 mmHg 53%
    11:00 +30°C° 0 mm 1 m/s 689 mmHg 49%
    12:00 +31°C° 0 mm 1 m/s 689 mmHg 45%
    13:00 +32°C° 0 mm 1 m/s 689 mmHg 41%
    14:00 +32°C° 0.2 mm 1 m/s 689 mmHg 40%
    15:00 +32°C° 0.2 mm 1 m/s 688 mmHg 40%
    16:00 +31°C° 0.2 mm 1 m/s 688 mmHg 40%
    17:00 +30°C° 0.2 mm 1 m/s 688 mmHg 49%
    18:00 +28°C° 0.2 mm 1 m/s 688 mmHg 58%
    19:00 +24°C° 0.2 mm 0 m/s 687 mmHg 67%
    20:00 +25°C° 0 mm 1 m/s 687 mmHg 68%
    21:00 +23°C° 0 mm 1 m/s 687 mmHg 70%
    22:00 +22°C° 0 mm 1 m/s 687 mmHg 72%
    23:00 +22°C° 0 mm 1 m/s 687 mmHg 72%
    Arată mai mult